Regional Weather Roundup
Issued by NWS

Home | Current Version | Previous Version | Text Only | Print | Product List | Glossary On
Versions: 1 2 3 4 5 6 7 8 9 10 11 12 13 14 15 16 17 18 19 20 21 22 23 24 25 26 27 28 29 30 31 32 33 34 35 36 37 38 39 40 41 42 43 44 45 46 47 48 49 50
000
ASHW40 PHFO 011013
RWRHI

WEATHER ROUNDUP FOR HAWAII
NATIONAL WEATHER SERVICE HONOLULU HI
1200 AM HST SUN MAY 01 2016

THIS IS AN AUTOMATED REPORT THAT HAS NOT BEEN QUALITY CONTROLLED.

NOTE..."FAIR" INDICATES FEW OR NO CLOUDS BELOW 12,000 FEET WITH NO
SIGNIFICANT WEATHER AND/OR OBSTRUCTIONS TO VISIBILITY.

* - THESE SITES REPORT LIMITED FIELDS

HIZ001>004-011100-
KAUAI-NIIHAU-

CITY           SKY/WX    TMP DP  RH WIND       PRES   REMARKS
LIHUE APT      PTCLDY    77  67  71 NE17      30.15F
PORT ALLEN*      N/A     75 N/A N/A E15         N/A
POIPU*           N/A     75 N/A N/A NE9G18      N/A
PRINCEVILLE*     N/A     73 N/A N/A E7G13       N/A
KOKOLE POINT*  NOT AVBL
MOLOAA DAIRY*    N/A     73  68  83 E3G9        N/A
WAIMEA HTS*    NOT AVBL
PUU OPAE*      NOT AVBL
PUU LUA*       NOT AVBL
MAKAHA RIDGE*  NOT AVBL
$$

HIZ005>011-011100-
OAHU-

CITY           SKY/WX    TMP DP  RH WIND       PRES   REMARKS
HONOLULU       PTCLDY    75  66  73 NE12      30.11F
KALAELOA       CLEAR     71  64  78 NE3       30.13S
KANEOHE MCB    PTCLDY    76  67  73 E10       30.10F
WHEELER FIELD  FAIR      72  64  77 NE2       30.12F
BELLOWS*       NOT AVBL
KAHUKU*        NOT AVBL
WHEELER*       NOT AVBL
WAIANAE HARBOR NOT AVBL
DILLINGHAM*      N/A     72  63  73 MISG        N/A
KAHUKU TRN*      N/A     82  73  74 CALM        N/A
KAWAILOA*        N/A     70  63  78 E10G22      N/A
KII*             N/A     75  68  78 E17         N/A
MAKUA RANGE*     N/A     88  75  66 E3G12       N/A  HX  97
OAHU FOREST NW NOT AVBL
SCHOFIELD BRK*   N/A     81  73  78 MISG        N/A
SCHOFIELD S*   NOT AVBL
WAIANAE VLY*   NOT AVBL
KUAOKALA*      NOT AVBL
HONOULIUULI*   NOT AVBL
MOKUOLOE IS*   NOT AVBL
PALEHUA*       NOT AVBL
WAIAWA PHB*    NOT AVBL
$$

HIZ012>013-011100-
MOLOKAI-

CITY           SKY/WX    TMP DP  RH WIND       PRES   REMARKS
MOLOKAI AIRPT  CLEAR     73  66  78 NE10G18   30.13S
KALAUPAPA      NOT AVBL
MAKAPULAPAI*   NOT AVBL
MOLOKAI 1*     NOT AVBL
PUU ALII*      NOT AVBL
$$

HIZ016-011100-
KAHOOLAWE-

CITY           SKY/WX    TMP DP  RH WIND       PRES   REMARKS
KAHOOLAWE*     NOT AVBL
HAKIOAWA*      NOT AVBL
HONOKANAIA*      N/A     77  67  71 NE12G22   30.06R
KANELOA*         N/A     72  64  78 E13G25    30.16F
KEALIALALO*    NOT AVBL
LUA MAKIKA*    NOT AVBL
$$

HIZ014>015-011100-
LANAI-

CITY           SKY/WX    TMP DP  RH WIND       PRES   REMARKS
LANAI CITY     FAIR      69  63  81 NE18G24   30.14S
LANAI 1*       NOT AVBL
$$

HIZ017>028-011100-
MAUI-

CITY           SKY/WX    TMP DP  RH WIND       PRES   REMARKS
KAHULUI        CLEAR     74  67  78 NE13      30.11F
KAPALUA-W MAUI NOT AVBL
HANA AIRPORT   NOT AVBL
HANA*            N/A     75 N/A N/A NE7         N/A
HALEAKALA SUMM   N/A     46  16  29 E18         N/A
MAALAEA BAY*   NOT AVBL
HALEAKALA*     NOT AVBL
KAUPO GAP*     NOT AVBL
KULA 1*          N/A     46  45  93 E3          N/A
$$

HIZ023>026-011100-
BIG ISLAND OF HAWAII COAST AND LOWER SLOPES-

CITY           SKY/WX    TMP DP  RH WIND       PRES   REMARKS
KAILUA KONA    CLEAR     77  64  64 NW5       30.05F
HILO           PTCLDY    72  67  84 SW6       30.13F
HONOKAA*         N/A     66 N/A N/A VRB1        N/A
KAWAIHAE MWT*    N/A     77 N/A N/A E13G23      N/A
KAWAIHAE*      NOT AVBL
SOUTH POINT*     N/A     70 N/A N/A N16G28      N/A
UPOLU AIRPORT*   N/A    N/A N/A N/A NE15G26     N/A
KAMUELA*       PTSUNNY   63  61  94 NE26      30.15S
HAKALAU*         N/A     46  46 100 W3          N/A
KALOKO-HONOKO* NOT AVBL
PALI 2*          N/A     63  57  82 S18G30      N/A
KEALAKOMO*       N/A     73  66  78 NE12G23     N/A
KAUPULEHU*     NOT AVBL
KAPAPALA*        N/A     57  55  93 N5          N/A
LOWER KAHUKU*  NOT AVBL
PUHE CS*       NOT AVBL
PUHO CS*       NOT AVBL
PTA KEAMUKU*     N/A     55  50  82 CALM        N/A
WAIKOLOA*      NOT AVBL
$$

HIZ027>028-011100-
BIG ISLAND OF HAWAII INTERIOR AND SUMMMITS-

CITY           SKY/WX    TMP DP  RH WIND       PRES   REMARKS
BRADSHAW FIELD CLOUDY    50  43  78 SE6       30.37F
MK VISITOR CEN   N/A     50   9  18 NE17        N/A
MAUNA KEA*       N/A     30   5  34 NE13        N/A  WCI  20
MAUNA LOA*       N/A    N/A N/A N/A MISG        N/A
MAUNA LOA 1*   NOT AVBL
PTA KIPUKA*      N/A     48  48 100 S2          N/A
PTA RANGE 17*    N/A     54  46  76 E12G20      N/A
PTA WEST*        N/A     55  54  94 E3G12       N/A
NENE CABIN*    NOT AVBL
AHUMOA*        NOT AVBL
PTA PORTABLE*  NOT AVBL
PUU MALI*        N/A    N/A N/A N/A SE12G20     N/A
$$

HIC003-011100-
NORTHWEST ISLANDS-

CITY           SKY/WX    TMP DP  RH WIND       PRES   REMARKS
MIDWAY ISLAND  MOCLDY    68  66  94 E14       30.28R
MIDWAY NOS*    NOT AVBL
FRENCH FRIGATE NOT AVBL
$$

PHZ110>124-180-011100-
BUOY REPORTS

STATION/POSITION TIME  TEMP    WIND        PRES    WAVE   SWELL
                       AIR SEA DIR/SP/G            HT/PER HT/DIR
                 (UTC) (F)     (DEG/KT/KT) (MB)    (FT/S) (FT/D)
BUOY 51001       0900   77 79   70/ 16/ 19 1020.5R
BUOY 51101       0950   75 76   60/ 14/ 16 1021.7F   6/14   5/ 20
BUOY 51100       NOT AVBL
BUOY 51002       0950   77 78   80/ 17/ 21 1016.7F   8/10   7/ 80
BUOY 51003       0950   78 78   50/ 14/ 17 1018.5F   7/ 9   5/ 70
BUOY 51004       0950   76 79   60/ 23/ 29 1017.4F   9/ 9   5/ 90
BARBERS PT BUOY  NOT AVBL
WAIMEA BAY BUOY  0904      78                N/A     4/12   2/320
KAILUA BAY BUOY  0911      78                N/A     6/ 9   2/100
LANAI BUOY       0915      79                N/A     3/12   2/220
BARBERS PT 2     1003      79                N/A     4/13   2/180
PAUWELA MAUI     0909      76                N/A     6/10   3/340
HILO             0912      77                N/A     7/10   2/ 70
KANEOHE BAY BUOY 0906      77                N/A     5/10   2/ 30
HANALEI KAUAI    NOT AVBL
KAHULUI HARBOR   0900   76 78   50/ 14/ 16 1020.0F
HONOLULU HARBOR  0900   77 79   30/  4/ 10 1020.6S
KILO NALU        NOT AVBL
HILO HARBOR      0900   74 76  230/  3/  4 1020.1R
MOKUOLOE         0900   77 79   80/ 12/ 16 1020.4S
NAWILIWILI       0900   76 80   40/ 11/ 16 1020.8S
WHOTS BUOY       NOT AVBL
BUOY 51028       NOT AVBL
$$

......................KEY........................................
  SKY/WX - SKY CONDITIONS/PRESENT WEATHER
  TMP    - TEMPERATURE IN FAHRENHEIT
  DWPT   - DEWPOINT IN FAHRENHEIT
  RH     - RELATIVE HUMIDITY IN PERCENT
  WIND   - DIRECTION AND SPEED /MPH FOR ISLANDS...KTS FOR BUOYS/
  PRES   - MEAN SEA LEVEL PRESSURE IN INCHES OF HG
  VSB    - VISIBILITY IN MILES
  HX     - HEAT INDEX
  WCI    - WIND CHILL INDEX
  VRB    - VARIABLE WIND DIRECTION
  N/A    - NOT AVAILABLE



USA.gov is the U.S. government's official web portal to all federal, state and local government web resources and services.